CW8332 Weather Reports


Display with metric or nautical units.
time (UTC)temp
F
wind
direction
speed
MPH
gust
MPH
rain 1hr
in
rain 24hr
in
rain mn
in
humidity
%
barometer
mb
20260508044725 50 279 0.0 1.0 0.00 0.08 0.00 65 1011.8
20260508043221 49 279 0.0 3.0 0.00 0.08 0.00 66 1011.8
20260508041735 47 272 0.0 0.0 0.00 0.08 0.00 66 1011.8
20260508040237 47 272 0.0 0.0 0.00 0.08 0.00 66 1011.9
20260508034717 47 272 0.0 1.0 0.01 0.09 0.08 67 1011.9
20260508033233 46 272 0.0 0.0 0.01 0.09 0.08 67 1012.0
20260508031726 46 272 0.0 0.0 0.01 0.09 0.08 67 1011.7
20260508030227 47 272 0.0 0.0 0.01 0.09 0.08 67 1011.7
20260508024729 47 272 0.0 0.0 0.00 0.08 0.07 65 1011.8
20260508023223 48 272 0.0 0.0 0.00 0.08 0.07 63 1011.7
20260508021713 49 272 0.0 0.0 0.00 0.08 0.07 60 1011.7
20260508020236 50 272 0.0 0.0 0.00 0.08 0.07 59 1011.6
20260508014717 50 272 0.0 0.0 0.00 0.09 0.07 58 1011.7
20260508013213 51 272 0.0 0.0 0.00 0.09 0.07 56 1011.4
20260508011725 52 272 0.0 0.0 0.00 0.09 0.07 53 1011.4
20260508010224 53 273 1.0 4.0 0.00 0.09 0.07 51 1011.3
20260508004727 53 242 1.0 3.0 0.00 0.09 0.07 50 1011.2
20260508003223 53 255 1.0 3.0 0.00 0.09 0.07 50 1011.3
20260508001713 54 279 2.0 5.0 0.00 0.09 0.07 50 1011.2
20260508000235 54 276 2.0 7.0 0.00 0.09 0.07 49 1011.0
20260507234742 55 264 3.0 9.0 0.00 0.10 0.07 48 1011.0
20260507233213 55 276 3.0 8.0 0.00 0.10 0.07 47 1011.1
20260507231725 56 271 3.0 8.0 0.00 0.10 0.07 47 1011.0
20260507230226 56 272 5.0 9.0 0.01 0.10 0.07 46 1011.1
20260507224730 56 248 4.0 12.0 0.01 0.11 0.07 45 1011.3
20260507223221 56 271 6.0 13.0 0.01 0.11 0.07 42 1011.2
20260507221734 56 296 4.0 11.0 0.01 0.11 0.07 43 1011.2
20260507220236 57 273 7.0 12.0 0.00 0.10 0.06 42 1011.2
20260507214719 57 279 4.0 13.0 0.00 0.10 0.06 45 1011.1
20260507213231 57 309 7.0 13.0 0.00 0.10 0.06 50 1011.1
20260507211722 56 284 5.0 12.0 0.00 0.10 0.06 52 1011.0
20260507210230 55 281 4.0 15.0 0.00 0.10 0.06 53 1010.8
20260507204731 54 288 4.0 7.0 0.00 0.11 0.06 56 1010.7
20260507203220 53 286 4.0 11.0 0.00 0.11 0.06 57 1010.9
20260507201734 54 288 6.0 9.0 0.00 0.11 0.06 58 1010.9
20260507200242 54 311 5.0 10.0 0.00 0.11 0.06 54 1010.7
20260507194722 54 286 5.0 11.0 0.00 0.12 0.06 54 1010.8
20260507193212 56 271 4.0 8.0 0.00 0.12 0.06 51 1010.8
20260507191725 56 287 4.0 10.0 0.00 0.12 0.06 50 1011.0
20260507190232 56 291 4.0 9.0 0.00 0.12 0.06 51 1011.1
20260507184713 56 314 3.0 10.0 0.00 0.14 0.06 50 1011.1
20260507183223 56 284 2.0 8.0 0.01 0.14 0.06 50 1011.2
20260507181722 56 283 4.0 9.0 0.01 0.14 0.06 50 1011.3
20260507180223 56 219 4.0 11.0 0.01 0.14 0.06 49 1011.2
20260507174723 56 294 4.0 8.0 0.01 0.15 0.06 51 1011.2
20260507173217 56 284 3.0 11.0 0.00 0.14 0.05 50 1011.5
20260507171734 55 283 4.0 9.0 0.00 0.14 0.05 52 1011.5
20260507170235 56 277 3.0 9.0 0.00 0.14 0.05 51 1011.6
20260507164714 55 291 3.0 10.0 0.01 0.15 0.05 55 1011.5
20260507163229 55 305 3.0 9.0 0.01 0.15 0.05 58 1011.4
20260507161747 56 293 4.0 8.0 0.01 0.15 0.05 59 1011.6
20260507160226 56 306 3.0 8.0 0.01 0.15 0.05 52 1011.5
20260507154727 56 252 3.0 7.0 0.00 0.16 0.04 54 1011.5
20260507153241 56 292 2.0 7.0 0.00 0.16 0.04 58 1011.6
20260507151715 56 297 3.0 8.0 0.00 0.16 0.04 59 1011.5
20260507150238 56 290 2.0 4.0 0.00 0.16 0.04 61 1011.4
20260507144717 54 285 3.0 7.0 0.00 0.18 0.04 53 1011.4
20260507143212 54 244 3.0 7.0 0.00 0.18 0.04 59 1011.4
20260507141726 55 288 3.0 5.0 0.00 0.18 0.04 63 1011.4
20260507140226 55 279 1.0 3.0 0.00 0.18 0.04 65 1011.6
20260507134728 54 59 1.0 3.0 0.01 0.19 0.04 66 1011.7
20260507133223 54 199 0.0 3.0 0.01 0.19 0.04 68 1011.8
20260507131712 52 246 1.0 3.0 0.01 0.19 0.04 69 1011.9
20260507130234 51 279 1.0 4.0 0.01 0.19 0.04 70 1012.0
20260507124714 51 277 0.0 3.0 0.00 0.19 0.03 69 1011.9
20260507123251 50 276 2.0 4.0 0.00 0.19 0.03 70 1012.1
20260507121720 49 270 2.0 4.0 0.00 0.19 0.03 71 1012.0
20260507120244 49 127 0.0 0.0 0.00 0.19 0.03 76 1011.9
20260507114722 47 127 0.0 0.0 0.01 0.21 0.03 79 1011.9
20260507113217 45 127 0.0 0.0 0.01 0.21 0.03 81 1011.6
20260507111729 44 127 0.0 0.0 0.01 0.21 0.03 81 1011.7
20260507110231 44 127 0.0 0.0 0.01 0.21 0.03 81 1011.6
20260507104713 44 127 0.0 0.0 0.00 0.22 0.02 80 1011.4
20260507103225 44 127 0.0 0.0 0.00 0.22 0.02 80 1011.4
20260507101715 44 127 0.0 0.0 0.00 0.22 0.02 79 1011.2
20260507100236 44 127 0.0 0.0 0.00 0.22 0.02 79 1011.4
20260507094721 44 127 0.0 0.0 0.00 0.23 0.02 79 1011.3
20260507093212 44 127 0.0 0.0 0.00 0.23 0.02 79 1011.3
20260507091745 44 127 0.0 0.0 0.00 0.23 0.02 79 1011.3
20260507090224 44 127 0.0 0.0 0.00 0.23 0.02 79 1011.4
20260507084732 44 127 0.0 1.0 0.00 0.25 0.02 79 1011.3
20260507083223 44 127 0.0 0.0 0.01 0.25 0.02 79 1011.6
20260507081715 44 127 0.0 1.0 0.01 0.25 0.02 79 1011.4
20260507080259 44 127 0.0 1.0 0.01 0.25 0.02 79 1011.4
20260507074723 45 127 0.0 1.0 0.01 0.27 0.02 79 1011.5
20260507073233 45 127 0.0 1.0 0.00 0.26 0.01 79 1011.6
20260507071727 45 128 0.0 1.0 0.00 0.26 0.01 79 1011.6
20260507070232 45 128 0.0 1.0 0.00 0.26 0.01 79 1011.7
20260507064733 45 128 0.0 1.0 0.01 0.28 0.01 79 1011.9
20260507063223 45 128 0.0 1.0 0.01 0.28 0.01 78 1011.9
20260507061713 45 128 0.0 0.0 0.01 0.28 0.01 78 1012.1
20260507060240 46 128 0.0 1.0 0.01 0.28 0.01 77 1012.1
20260507054721 46 128 0.0 1.0 0.00 0.29 0.00 76 1012.2
20260507053233 46 126 0.0 1.0 0.00 0.29 0.00 75 1012.2
20260507051723 47 126 0.0 2.0 0.00 0.29 0.00 74 1012.3
20260507050229 47 127 0.0 1.0 0.00 0.29 0.00 73 1012.5